Location: ActonStarParty
(42.4766°N, 71.4538°W)
Time: 21:05:10
(UTC-04:00)

Meteor 2-10 Rocket - Pass Details

Date: 19 April 2018
Orbit: 733 x 886 km, 81.2° (Epoch: 20 June)

Event Time Altitude Azimuth Distance (km) Brightness Sun altitude
Exits shadow 22:11:12 31° 210° (SSW) 1,468 4.7 -25.6°
Maximum altitude 22:13:56 65° 282° (WNW) 960 4.1 -25.9°
Drops below altitude 10° 22:19:44 10° 4° (N) 2,554 6.7 -26.6°
Sets 22:22:15 0° 8° (N) 3,501 7.5 -26.9°
